This is the latest recevied weather packets stored in our database for station/object SP5MRF-11. If no packets are shown the sender has not sent any weather packets the latest 10 day(s).
| Time | Temp. | Humidity | Pressure | Rain* | Wind** | Luminosity | Snow |
|---|---|---|---|---|---|---|---|
| 1788494558 | 16.11° C | 58% | 1013.3 hPa | - | - | - | - |
| 1788493657 | 16.11° C | 58% | 1013.2 hPa | - | - | - | - |
| 1788492757 | 16.11° C | 57% | 1013.2 hPa | - | - | - | - |
| 1788491857 | 16.11° C | 58% | 1013.4 hPa | - | - | - | - |
| 1788490957 | 16.11° C | 57% | 1013.4 hPa | - | - | - | - |
| 1788490057 | 16.11° C | 57% | 1013.4 hPa | - | - | - | - |
| 1788489157 | 16.11° C | 57% | 1013.4 hPa | - | - | - | - |
| 1788488256 | 15.56° C | 57% | 1013.4 hPa | - | - | - | - |
| 1788487356 | 15.56° C | 57% | 1013.4 hPa | - | - | - | - |
| 1788486456 | 15.56° C | 57% | 1013.5 hPa | - | - | - | - |
| 1788485556 | 15.56° C | 57% | 1013.5 hPa | - | - | - | - |
| 1788484656 | 15.56° C | 57% | 1013.6 hPa | - | - | - | - |
| 1788483756 | 15.56° C | 57% | 1013.6 hPa | - | - | - | - |
| 1788482855 | 15.56° C | 57% | 1013.9 hPa | - | - | - | - |
| 1788481955 | 16.11° C | 57% | 1013.8 hPa | - | - | - | - |
| 1788481055 | 16.11° C | 56% | 1014.1 hPa | - | - | - | - |
| 1788480212 | 16.67° C | 55% | 1014.3 hPa | - | - | - | - |
| 1788480155 | 16.67° C | 55% | 1014.3 hPa | - | - | - | - |
| 1788479255 | 16.67° C | 55% | 1014.4 hPa | - | - | - | - |
| 1788478355 | 16.67° C | 54% | 1014.4 hPa | - | - | - | - |
| 1788477453 | 17.22° C | 54% | 1014.7 hPa | - | - | - | - |
| 1788476553 | 18.33° C | 53% | 1015 hPa | - | - | - | - |
| 1788475653 | 18.33° C | 52% | 1015 hPa | - | - | - | - |
| 1788474753 | 18.33° C | 52% | 1015 hPa | - | - | - | - |
| 1788473853 | 18.33° C | 52% | 1015 hPa | - | - | - | - |
* Rain since midnight (hover to see other rain measurements)
** Current wind speed in m/s (hover to see current wind gust speed)